Address 0x12d7a4de0f4bbe93a7e92132259a5bf559932153

Overview

Balance:
0.001013005310309169 BNB

BNB Value:
$0.03 (@ $28.27/BNB)
Txn Hash
Block
From
To
Value [Txn Fee]
0x161ab0214e386b7e6e07b145dd6988d9d94f3e616efa190ab94f36e8ed296d6215199072020-10-20 22:05:0411 days 2 hrs ago0x12d7a4de0f4bbe93a7e92132259a5bf559932153OUT BSC: Token Hub0.009 BNB0.00152322
0x7c5b65d1dcd5c541eb64f37bae56d84925efeda35d8c9d6d8275ac6d3910c4e215187282020-10-20 21:06:0711 days 3 hrs ago0x12d7a4de0f4bbe93a7e92132259a5bf559932153OUT BSC: Token Hub2.802 BNB0.00152072
0x81156bc33dfe897f21730b3bbf0a825e119f3978d64404692be58ecfbe3537a715187032020-10-20 21:04:5211 days 3 hrs ago0x12d7a4de0f4bbe93a7e92132259a5bf559932153OUT 0x7833f7d66248e4fbd705cd83dcc74288ff98d3130 BNB0.00227292
0x9b4fe58ec751710670eebb205197cff37dba84decf817c7626d562cad8b9876d14373752020-10-18 1:18:2713 days 23 hrs ago0x12d7a4de0f4bbe93a7e92132259a5bf559932153OUT 0x7833f7d66248e4fbd705cd83dcc74288ff98d3130 BNB0.00468818
0x345a6c25ae0fceed88701b49ff452aef58f7d721dcd8922c0b5bdec766ecd48514373362020-10-18 1:16:3013 days 23 hrs ago0xcac2cce3c5e468585e8397ed179af4dbe929abf1 IN 0x12d7a4de0f4bbe93a7e92132259a5bf5599321530.1 BNB0.00042
0x4a5c94cc384891f71b0c695c297a398156c13165009bde1e6a8df613caea46c414360882020-10-18 0:14:0614 days 28 mins ago0x12d7a4de0f4bbe93a7e92132259a5bf559932153OUT 0x7833f7d66248e4fbd705cd83dcc74288ff98d3130 BNB0.00468662
0x104f8a05f262fd4cbfc6fd1794383d56e0949e904672466ed87473e4975c09a714360212020-10-18 0:10:4514 days 31 mins ago0x12d7a4de0f4bbe93a7e92132259a5bf559932153OUT 0x7833f7d66248e4fbd705cd83dcc74288ff98d31316.657094526504604 BNB0.0025073
0xebc67574b05f6598cc9a364a6a5bc4c6d60786ce58222946352d953a4ae72bd614359292020-10-18 0:06:0914 days 36 mins ago0x12d7a4de0f4bbe93a7e92132259a5bf559932153OUT 0x7833f7d66248e4fbd705cd83dcc74288ff98d3130 BNB0.00227292
0x01d216c2b4efba65185c2843f4fcd4867da7d4335f9461dfd1d5f1fdee94e4ad14359102020-10-18 0:05:1214 days 37 mins ago0x12d7a4de0f4bbe93a7e92132259a5bf559932153OUT 0x7833f7d66248e4fbd705cd83dcc74288ff98d3130 BNB0.00079612
0xa57a8697f049af31427cdd08aae56a73200832cb0990fcb70b95334696fbb75a14352342020-10-17 23:31:2414 days 1 hr ago0x12d7a4de0f4bbe93a7e92132259a5bf559932153OUT 0x7833f7d66248e4fbd705cd83dcc74288ff98d31317.676609417165734 BNB0.0025073
0xda337a6b7e399cb9c666ac18442b02d0d00beeaa83a7bd067516cfbdcd3c80f314352222020-10-17 23:30:4814 days 1 hr ago0x12d7a4de0f4bbe93a7e92132259a5bf559932153OUT 0x7833f7d66248e4fbd705cd83dcc74288ff98d3130 BNB0.00350178
0x178559e701d8cef9a6ebefb700e0527c2887482f6f15c35cc37190a782e8ca5d14347082020-10-17 23:05:0614 days 1 hr ago0x12d7a4de0f4bbe93a7e92132259a5bf559932153OUT Tether: USDT Stablecoin0 BNB0.00088812
0x9cde0cafd55c73b87de1b4c253d6089a59e18cfe73c265a0ddf36e6eb78a2a3814346802020-10-17 23:03:4214 days 1 hr ago0x12d7a4de0f4bbe93a7e92132259a5bf559932153OUT 0x7833f7d66248e4fbd705cd83dcc74288ff98d31318.010434169476003 BNB0.00373452
0xb26e1c8e640ec59b3452dd298ca6bb6fe54ba0e9c4d362dc7157f0b43d573b0014340032020-10-17 22:29:5114 days 2 hrs ago0x12d7a4de0f4bbe93a7e92132259a5bf559932153OUT 0x7833f7d66248e4fbd705cd83dcc74288ff98d3130 BNB0.00227292
0x96d7e6586054d9210808439764c10b7a008fa12571ff19e36d25ccbff9e5dc3a14339872020-10-17 22:29:0314 days 2 hrs ago0x12d7a4de0f4bbe93a7e92132259a5bf559932153OUT 0x7833f7d66248e4fbd705cd83dcc74288ff98d3130 BNB0.00058646
0x7848d3e9d9854035f3e62374d4a676669a170af6d1768b1308305413c574c3d214339812020-10-17 22:28:4514 days 2 hrs ago0x12d7a4de0f4bbe93a7e92132259a5bf559932153OUT 0x7833f7d66248e4fbd705cd83dcc74288ff98d3130 BNB0.00058646
0x35690cb24b09d86cd20f0c66be19e17499f09ab31df3cd469a6426871b492dc914339762020-10-17 22:28:3014 days 2 hrs ago0x12d7a4de0f4bbe93a7e92132259a5bf559932153OUT 0x7833f7d66248e4fbd705cd83dcc74288ff98d3130 BNB0.00058646
0xd131d6288f611bb247d48047d13b7dbf5315b37e894260f327e3e60fd363628214339722020-10-17 22:28:1814 days 2 hrs ago0x12d7a4de0f4bbe93a7e92132259a5bf559932153OUT 0x7833f7d66248e4fbd705cd83dcc74288ff98d3130 BNB0.0005867
0x2d3079b799c430277faf1d289f27edc33ca45cfe9bd5ef4de71f1f45039b580f14335042020-10-17 22:04:5414 days 2 hrs ago0x12d7a4de0f4bbe93a7e92132259a5bf559932153OUT 0x7833f7d66248e4fbd705cd83dcc74288ff98d3130 BNB0.00058646
0xb0ae14325268085f6f67df16021a473879ae8f9e0200c11612c18c4df49f830314334722020-10-17 22:03:1814 days 2 hrs ago0x12d7a4de0f4bbe93a7e92132259a5bf559932153OUT 0x7833f7d66248e4fbd705cd83dcc74288ff98d31317.228785699685535 BNB0.0022641
0xb3a782fff6c804db3fa8c47c1e3fed3318a537528a16e982c263699b7e1a0c3d14334672020-10-17 22:03:0314 days 2 hrs ago0x12d7a4de0f4bbe93a7e92132259a5bf559932153OUT 0x7833f7d66248e4fbd705cd83dcc74288ff98d31317.228785699685535 BNB0.00058252
0x81cf5ccda3b94a2bb306324e7025e9a0422e30fb5c2569df2349762bc64487e914327342020-10-17 21:26:2414 days 3 hrs ago0x12d7a4de0f4bbe93a7e92132259a5bf559932153OUT 0x7833f7d66248e4fbd705cd83dcc74288ff98d31317.230533979685535 BNB0.00058276
0x53b667972dc23b275c99454ce7a4527a3df644ef7cc7abb8b683318451ba044614327292020-10-17 21:26:0914 days 3 hrs ago0x12d7a4de0f4bbe93a7e92132259a5bf559932153OUT 0x7833f7d66248e4fbd705cd83dcc74288ff98d31317.230533979685535 BNB0.00058276
0xb7d5eb0fe1c43d1ccd341883f9b8fe9241afcce2df8054bb70747def01f5cbc514327242020-10-17 21:25:5414 days 3 hrs ago0x12d7a4de0f4bbe93a7e92132259a5bf559932153OUT 0x7833f7d66248e4fbd705cd83dcc74288ff98d31317.230533979685535 BNB0.00058276
0x4c62175b896ecc54700f96a90e7c3b75e68a22573faae62a4913bdbfc7d5eb0414326952020-10-17 21:24:2714 days 3 hrs ago0x12d7a4de0f4bbe93a7e92132259a5bf559932153OUT 0x7833f7d66248e4fbd705cd83dcc74288ff98d3130 BNB0.00227292
[ Download CSV Export 
Latest 7 internal transactions
Parent Txn Hash Block From To Value
0x81156bc33dfe897f21730b3bbf0a825e119f3978d64404692be58ecfbe3537a715187032020-10-20 21:04:5211 days 3 hrs ago 0x7833f7d66248e4fbd705cd83dcc74288ff98d3130x12d7a4de0f4bbe93a7e92132259a5bf5599321532.719211965310309169 BNB
0xebc67574b05f6598cc9a364a6a5bc4c6d60786ce58222946352d953a4ae72bd614359292020-10-18 0:06:0914 days 36 mins ago 0x7833f7d66248e4fbd705cd83dcc74288ff98d3130x12d7a4de0f4bbe93a7e92132259a5bf55993215316.662670866504604743 BNB
0xda337a6b7e399cb9c666ac18442b02d0d00beeaa83a7bd067516cfbdcd3c80f314352222020-10-17 23:30:4814 days 1 hr ago 0x7833f7d66248e4fbd705cd83dcc74288ff98d3130x12d7a4de0f4bbe93a7e92132259a5bf55993215317.684733837165734332 BNB
0xb26e1c8e640ec59b3452dd298ca6bb6fe54ba0e9c4d362dc7157f0b43d573b0014340032020-10-17 22:29:5114 days 2 hrs ago 0x7833f7d66248e4fbd705cd83dcc74288ff98d3130x12d7a4de0f4bbe93a7e92132259a5bf55993215318.018486249476003706 BNB
0x4c62175b896ecc54700f96a90e7c3b75e68a22573faae62a4913bdbfc7d5eb0414326952020-10-17 21:24:2714 days 3 hrs ago 0x7833f7d66248e4fbd705cd83dcc74288ff98d3130x12d7a4de0f4bbe93a7e92132259a5bf55993215317.236483179685535736 BNB
0x34bbe87a47d6a067491db77855a84ae4b7e78c51508d5fa0e561e1af2905651414324872020-10-17 21:14:0314 days 3 hrs ago 0x7833f7d66248e4fbd705cd83dcc74288ff98d3130x12d7a4de0f4bbe93a7e92132259a5bf55993215315.117853682096273215 BNB
0x893a0f39caf2e8ccde7c9864a211f71da6a88629f24c2b70de7b115f5f17014a14313092020-10-17 20:15:0914 days 4 hrs ago 0x7833f7d66248e4fbd705cd83dcc74288ff98d3130x12d7a4de0f4bbe93a7e92132259a5bf55993215315.410451888871604895 BNB
[ Download CSV Export 
Loading

Contract Name:
0 BNB

Compiler Version
0

Optimization Enabled:
0 BNB

Other Settings:
-NA-
Block Transaction Gas Used Reward
Age Block Fee Address BC Fee Address Voting Power Jailed Incoming
Block Uncle Number Difficulty Gas Used Reward
Loading
Loading
Make sure to use the "Vote Down" button for any spammy posts, and the "Vote Up" for interesting conversations.